Regional Weather Roundup
Issued by NWS Wakefield, VA

Home | Current Version | Previous Version | Graphics & Text | Print | Product List | Glossary On
Versions: 1 2 3 4 5 6 7 8 9 10 11 12 13 14 15 16 17 18 19 20 21 22 23 24 25 26 27 28 29 30 31 32 33 34 35 36 37 38 39 40 41 42 43 44 45 46 47 48 49 50
000
ASUS41 KAKQ 061515
RWRAKQ

REGIONAL WEATHER ROUNDUP
NATIONAL WEATHER SERVICE WAKEFIELD VA
1000 AM EST TUE DEC 06 2016

Note: "fair" indicates few or no clouds below 12,000 feet with no
significant weather and/or obstructions to visibility. * = Denotes
station may not report precipitation (e.g., rain,snow,etc.),
thunder or fog.

VAZ042-051-052>054-056-061600-
NORTHERN VIRGINIA

CITY           SKY/WX    TMP DP  RH WIND       PRES   REMARKS
WASH NATIONAL  LGT RAIN  44  35  70 NE7       30.10S
DULLES         LGTSLEET  40  35  83 E3        30.08F
FORT BELVOIR   LGT RAIN  41  36  83 CALM      30.08F
QUANTICO       LGT RAIN  43  35  73 NE12      30.08F
FREDERICKSBRG* DRIZZLE   42  40  92 NE3       30.05F
STAFFORD*      DRIZZLE   40  38  94 NE6       30.10F
WARRENTON      DRIZZLE   40  35  81 NE3       30.06S
CULPEPER*      CLOUDY    40  38  92 CALM      30.08S
MANASSAS*      CLOUDY    41  37  87 E5        30.08F
LEESBURG*      RAIN      39  37  93 MISG      30.09S
WINCHESTER     RAIN      36  34  93 CALM      30.06R
FRONT ROYAL*   CLOUDY    36  36 100 CALM      30.05S
LURAY*         LGT RAIN  37  37 100 N5        30.04S
$$

VAZ048-049-060>072-079>083-061600-
CENTRAL AND SOUTH CENTRAL VIRGINIA

CITY           SKY/WX    TMP DP  RH WIND       PRES   REMARKS
RICHMOND       LGT RAIN  42  40  92 NE8       30.02F FOG
CHESTERFIELD*  CLOUDY    43  27  52 NE5       30.02F
PETERSBURG*    LGT RAIN  42  41  95 NE7       30.00F
HANOVER        RAIN      41  38  89 NE5       30.04F FOG
TAPPAHANNOCK*  LGT RAIN  43  43 100 NE7       30.02F
QUINTON*       CLOUDY    42  41  97 NE6       30.02F
CHARLOTTSVILLE LGT RAIN  41  35  79 NE6       30.05R
GORDONSVILLE*  CLOUDY    40  37  89 NE7       30.05R
ORANGE*          N/A     41  39  93 N5        30.08R
LOUISA*        DRIZZLE   43  41  93 NE5       30.02S
BUMPASS*       CLOUDY    40  39  97 CALM      30.04S
FARMVILLE*     LGT RAIN  42  41  97 NE7       30.01R
CREWE*         CLOUDY    41  41 100 N6        29.99F
FORT PICKETT*  CLOUDY   N/A N/A N/A NE9       29.98F
CHASE CITY*    CLOUDY    42  41  95 NE3       29.96S
CLARKSVILLE*   CLOUDY    43  43 100 NE7       29.95S
SOUTH HILL*    CLOUDY    43  43 100 NE5       30.01S
LAWRENCEVILLE* CLOUDY    43  42  96 NE7       29.96F
EMPORIA*       LGT RAIN  43  43 100 N7        29.98F
$$

VAZ088>098-061600-
SOUTHEAST VIRGINIA

CITY           SKY/WX    TMP DP  RH WIND       PRES   REMARKS
NORFOLK        RAIN      51  47  86 E17G28    29.97F FOG
VIRGINIA BEACH LGT RAIN  51  45  79 E17G24    29.97F
NORFOLK NAVAL  LGT RAIN  51  48  89 E16G28    29.99F
WEST POINT*    CLOUDY    45  44  96 NE8       30.03F
SALUDA*        CLOUDY    46  45  96 E8        30.03F
NEWPORT NEWS   LGT RAIN  49  46  90 NE14G22   29.99F FOG
LANGLEY AFB    LGT RAIN  50  48  93 E18       29.98F
FORT EUSTIS    LGT RAIN  47  45  90 E8        29.96F
WILLIAMSBURG*  CLOUDY    46  46 100 CALM      30.00F
HR EXEC AP*    CLOUDY    48  46  93 E9        29.95F
FRANKLIN*      RAIN      47  46  95 NE6       29.96F
US460-WAKEFLD  LGT RAIN  46  45  96 VRB6      29.98F FOG
$$

VAZ020-022-025-037-045-061600-
WEST CENTRAL AND SOUTHWEST VIRGINIA

CITY           SKY/WX    TMP DP  RH WIND       PRES   REMARKS
STAUNTON*      LGT RAIN  37  33  86 CALM      30.05R
WAYNESBORO*    CLOUDY    37  33  85 NE5       30.02R
HOT SPRINGS VA MIX PCPN  32  32 100 E16       29.85F VSB<1/4 WCI  21
LYNCHBURG      RAIN      39  38  96 NE10      30.01S FOG
DANVILLE       LGT RAIN  43  43 100 NE13      29.95S FOG
SOUTH BOSTON*  CLOUDY    43  42  95 NE7       29.96S
MARTINSVILLE   LGT RAIN  41  39  93 NE9       29.96F
ROANOKE        RAIN      41  39  93 E10       29.97F FOG
BLACKSBURG     LGT RAIN  39  38  97 E18G24    29.91F
DUBLIN*        RAIN      40  39  97 SE13      29.90F
MARION*        CLOUDY    39  38  94 E14G23    29.86S FOG
HILLSVILLE*    CLOUDY    36  36 100 CALM      29.86R FOG
RICHLANDS*     LGT RAIN  40  38  95 SE13      29.77F
WISE*          RAIN      45  45 100 SE8       29.72S
ABINGDON*      CLOUDY    46  41  82 E21       29.74F
$$

MDZ021>025-VAZ099-100-061600-
SOUTHERN MARYLAND AND THE DELMARVA PENINSULA

CITY           SKY/WX    TMP DP  RH WIND       PRES   REMARKS
PATUXENT RIVER LGT RAIN  43  37  79 E8        30.06F
BAY BRIDGE APT CLOUDY    43  32  65 NE5       30.09S
LEONARDTOWN    CLOUDY    41  37  87 NE3       30.07F
DOVER          CLOUDY    42  35  74 NE14      30.08F
GEORGETOWN     CLOUDY    47  39  74 E8        30.08F
EASTON         CLOUDY    45  34  65 E6        30.12F
CAMBRIDGE      PTSUNNY   41  36  81 E5        30.07S
SALISBURY      LGT RAIN  46  40  79 E5        30.08S
OCEAN CITY     CLOUDY    50  41  71 E14G23    30.08S
WALLOPS ISLAND LGT RAIN  49  45  86 E9        30.08R
ACCOMACK*      LGT RAIN  48  46  90 E13       30.04F
$$

NCZ012>017-030>032-061600-
NORTH CENTRAL AND EASTERN NORTH CAROLINA

CITY           SKY/WX    TMP DP  RH WIND       PRES   REMARKS
ROANOKE RAPIDS DRIZZLE   45  45 100 NE7       29.95F
RALEIGH        LGT RAIN  46  45  96 NE10      29.91S FOG
ELIZABETH CITY LGT RAIN  52  50  93 NE15      29.95F
AHOSKIE*       LGT RAIN  46  46  97 NE3       29.95F
EDENTON*       DRIZZLE   53  50  90 E12       29.94F
CURRITUCK*     RAIN      53  50  91 NE8G17    29.97F
KILL DEVIL HLS DRIZZLE   55  55 100 E13G20    29.93S
MANTEO         LGT RAIN  55  54  97 E15       29.95R
CAPE HATTERAS  LGT RAIN  62  59  90 E16G23    29.89F FOG
TARBORO*       NOT AVBL
GOLDSBORO      LGT RAIN  50  50 100 NE12      29.87F
WASHINGTON     DRIZZLE   51  49  95 NE8G18    29.93R
GREENVILLE     LGT RAIN  50  50 100 E9        29.93F
NEW BERN       HVY RAIN  53  52  96 E8        29.88F FOG
WILMINGTON     RAIN      60  60 100 NE12      29.81F FOG
$$

VAZ048-061600-
ELSEWHERE

CITY           SKY/WX    TMP DP  RH WIND       PRES   REMARKS
HARRISBURG PA  CLOUDY    37  32  82 E3        30.08F
BALTIMORE      LGTSLEET  42  33  70 E12       30.08F
ANNAPOLIS      CLOUDY    45  33  63 E7        30.09F
ANDREWS AFB    LGT RAIN  41  34  76 E7        30.07S
PHILADELPHIA   CLOUDY    42  30  62 NE10      30.13S
HENDERSON NC   DRIZZLE   42  40  96 NE8       29.94S
GREENSBORO     HVY RAIN  44  43  96 NE16      29.89F FOG
ROCKY MOUNT    CLOUDY    47  47 100 NE9       29.92S FOG
$$

VAZ100-061600-
MARINE

STATION/POSITION TIME  TEMP    WIND        PRES    WAVE   SWELL
                       AIR SEA DIR/SP/G            HT/PER HT/PER
                 (UTC) (F)     (DEG/KT/KT) (MB)    (FT/S) (FT/S)
BRANDYWINE LGT   1448   43      80/ 13/ 16   N/A
CAPE MAY NJ      1448   44 48   60/  7/ 12 1018.5F
LEWES DE         1448   48 47  100/ 13/ 18 1018.4F
OCEAN-CITY-INLET 1448   50 49  100/  9/ 14 1018.8F
WACHAPREAGUE VA  1448   49 48   80/ 12/ 15 1017.3S
THOMAS POINT MD  1500   42 48   70/  8/  9   N/A
GOOSES REEF MD   1500   44 50  120/  8/ 10 1019.1    1/ 2
COVE POINT MD    1448   42     100/  5/ 10 1019.0F
SOLOMONS ISLAND  1448   44 50   70/  9/ 10   N/A
BISHOPS HEAD MD  1448   44 45   50/  7/  8 1018.5S
PINEY POINT MD   1448           90/  8/ 10   N/A
POTOMAC MD       1500   46 51   90/ 14/ 17 1016.4    1/ 3
CAMBRIDGE MD     1448   43 47   70/  8/ 10 1017.9F
LEWISETTA VA     1448   46 48   90/ 15/ 18 1017.0F
RAPPAHANNOCK LGT 1448           50/ 19/ 22 1016.9F
STINGRAY PT      1500   48      80/ 16/ 17 1016.9    2/ 3
YORK RVR RNG VA  1448   49      70/ 21/ 23 1015.7F
YORKTOWN VA      1448   48 51   50/ 15/ 17 1015.6F
JAMESTOWN VA     1500   46 52   60/  8/ 14   N/A     0
DOMINION TERM VA 1448   50      70/ 14/ 21 1015.3F
KIPTOPEKE VA     1448      51   80/ 12/ 19   N/A
CHES BAY BRIDGE  1448   51 53   80/ 23/ 30 1014.9F
CAPE HENRY VA    1448   52      70/ 25/ 29   N/A
WILLOUBY STN VA  1448   51      70/ 21/ 24 1016.0F
S CRANEY ISL VA  1448   51      70/ 13/ 17 1014.8F
CAPE HENRY BUOY  1442      56                N/A     6/ 6   2/11
1ST LANDING BUOY 1500   52 53              1015.3    4/ 4
CAPE CHARLES BUO 1456      55                N/A     5/ 5   2/11
OFFSHORE WE BUOY 1451      56                N/A     6/ 5   2/11
64NM E OF VA BCH 1450   58 60   60/ 21/ 25 1014.5F   6/ 8   3/ 8
DUCK PIER NC     1448   55 54   70/ 24/ 27 1013.5F
44100 DUCK FRF   1435      56                N/A     7/ 5   2/11
OREGON INLET NC  1436   58 56   70/ 10/ 15 1013.1F
HATTERAS NC      1448   63 60  110/ 16/ 22 1011.8F
DIAMOND SHLS NC  1450   67 76  110/ 23/ 27 1012.3F   6/ 7   2/11
CAPE LOOKOUT NC  1500   64     110/ 20/ 22 1010.7F
$$



USA.gov is the U.S. government's official web portal to all federal, state and local government web resources and services.